| time (UTC) | temp C | wind direction | speed KPH | gust KPH | rain 1hr cm | rain 24hr cm | rain mn cm | humidity % | barometer mb |
| 20260504180055 | 18 | 0 | 0.0 | 1.6 | 0.00 | 0.00 | 0.00 | 79 | 1006.1 |
| 20260504174601 | 18 | 0 | 0.0 | 0.0 | 0.00 | 0.00 | 0.00 | 78 | 1006.1 |
| 20260504173056 | 18 | 0 | 0.0 | 0.0 | 0.00 | 0.00 | 0.00 | 75 | 1006.3 |
| 20260504171555 | 19 | 0 | 0.0 | 6.4 | 0.00 | 0.00 | 0.00 | 72 | 1006.0 |
| 20260504140108 | 21 | 78 | 1.6 | 6.4 | 0.00 | 0.00 | 0.00 | 56 | 1007.8 |
| 20260504110118 | 15 | 0 | 0.0 | 0.0 | 0.00 | 0.00 | 0.00 | 79 | 1008.8 |
| 20260504090117 | 16 | 130 | 0.0 | 1.6 | 0.00 | 0.00 | 0.00 | 72 | 1008.9 |
| 20260504081556 | 17 | 0 | 0.0 | 1.6 | 0.00 | 0.00 | 0.00 | 69 | 1008.6 |
| 20260504044601 | 20 | 119 | 1.6 | 12.9 | 0.00 | 0.00 | 0.00 | 56 | 1008.3 |
| 20260504043054 | 20 | 106 | 1.6 | 11.3 | 0.00 | 0.00 | 0.00 | 55 | 1008.8 |
| 20260504041553 | 20 | 102 | 1.6 | 12.9 | 0.00 | 0.00 | 0.00 | 55 | 1009.2 |
| 20260504040103 | 20 | 288 | 0.0 | 8.0 | 0.00 | 0.00 | 0.00 | 54 | 1009.1 |
| 20260504034557 | 20 | 0 | 0.0 | 9.7 | 0.00 | 0.00 | 0.00 | 55 | 1009.8 |
| 20260504033104 | 19 | 106 | 0.0 | 3.2 | 0.00 | 0.00 | 0.00 | 55 | 1009.9 |
| 20260504031556 | 19 | 0 | 0.0 | 8.0 | 0.00 | 0.00 | 0.00 | 54 | 1009.9 |
| 20260504030054 | 19 | 0 | 0.0 | 1.6 | 0.00 | 0.00 | 0.00 | 54 | 1009.7 |
| 20260504024601 | 20 | 94 | 0.0 | 6.4 | 0.00 | 0.00 | 0.00 | 53 | 1009.5 |
| 20260504023057 | 20 | 0 | 0.0 | 1.6 | 0.00 | 0.00 | 0.00 | 52 | 1009.6 |
| 20260504021554 | 20 | 0 | 0.0 | 1.6 | 0.00 | 0.00 | 0.00 | 52 | 1009.4 |
| 20260504020055 | 20 | 0 | 0.0 | 0.0 | 0.00 | 0.00 | 0.00 | 50 | 1009.4 |
| 20260504014552 | 21 | 0 | 0.0 | 0.0 | 0.00 | 0.00 | 0.00 | 48 | 1009.2 |
| 20260504013101 | 21 | 0 | 0.0 | 3.2 | 0.00 | 0.00 | 0.00 | 47 | 1009.1 |
| 20260504011555 | 22 | 0 | 0.0 | 1.6 | 0.00 | 0.00 | 0.00 | 46 | 1009.1 |
| 20260504010101 | 22 | 0 | 0.0 | 3.2 | 0.00 | 0.00 | 0.00 | 44 | 1009.1 |
| 20260504004602 | 23 | 0 | 0.0 | 6.4 | 0.00 | 0.00 | 0.00 | 42 | 1009.0 |
| 20260504003055 | 23 | 0 | 0.0 | 6.4 | 0.00 | 0.00 | 0.00 | 42 | 1009.1 |
| 20260504001612 | 24 | 88 | 1.6 | 8.0 | 0.00 | 0.00 | 0.00 | 39 | 1009.0 |
| 20260504000056 | 25 | 74 | 0.0 | 12.9 | 0.00 | 0.00 | 0.00 | 38 | 1009.1 |
| 20260503234556 | 26 | 98 | 3.2 | 11.3 | 0.00 | 0.00 | 0.00 | 35 | 1009.2 |
| 20260503233059 | 26 | 44 | 1.6 | 17.7 | 0.00 | 0.00 | 0.00 | 34 | 1009.2 |
| 20260503231556 | 26 | 99 | 3.2 | 25.7 | 0.00 | 0.00 | 0.00 | 33 | 1009.3 |
| 20260503230055 | 26 | 150 | 4.8 | 20.9 | 0.00 | 0.00 | 0.00 | 33 | 1009.4 |
| 20260503224559 | 26 | 162 | 6.4 | 20.9 | 0.00 | 0.00 | 0.00 | 33 | 1009.5 |
| 20260503223057 | 26 | 54 | 6.4 | 24.1 | 0.00 | 0.00 | 0.00 | 31 | 1009.5 |
| 20260503221556 | 26 | 115 | 4.8 | 16.1 | 0.00 | 0.00 | 0.00 | 30 | 1009.8 |
| 20260503220113 | 26 | 84 | 4.8 | 17.7 | 0.00 | 0.00 | 0.00 | 31 | 1010.0 |
| 20260503214555 | 26 | 62 | 6.4 | 16.1 | 0.00 | 0.00 | 0.00 | 32 | 1010.0 |
| 20260503213100 | 26 | 98 | 3.2 | 24.1 | 0.00 | 0.00 | 0.00 | 35 | 1009.9 |
| 20260503211608 | 26 | 91 | 0.0 | 24.1 | 0.00 | 0.00 | 0.00 | 38 | 1010.1 |
| 20260503210059 | 25 | 90 | 4.8 | 27.4 | 0.00 | 0.00 | 0.00 | 36 | 1010.4 |
| 20260503204602 | 25 | 122 | 4.8 | 16.1 | 0.00 | 0.00 | 0.00 | 38 | 1010.8 |
| 20260503203057 | 26 | 100 | 3.2 | 14.5 | 0.00 | 0.00 | 0.00 | 36 | 1011.1 |
| 20260503201554 | 25 | 307 | 3.2 | 14.5 | 0.00 | 0.00 | 0.00 | 36 | 1011.4 |
| 20260503200056 | 25 | 134 | 6.4 | 25.7 | 0.00 | 0.00 | 0.00 | 35 | 1011.7 |
| 20260503194557 | 24 | 65 | 6.4 | 19.3 | 0.00 | 0.00 | 0.00 | 36 | 1012.2 |
| 20260503193113 | 24 | 87 | 3.2 | 16.1 | 0.00 | 0.00 | 0.00 | 38 | 1012.6 |
| 20260503191600 | 23 | 83 | 4.8 | 16.1 | 0.00 | 0.00 | 0.00 | 38 | 1012.9 |
| 20260503190054 | 23 | 69 | 4.8 | 14.5 | 0.00 | 0.00 | 0.00 | 37 | 1013.3 |
| 20260503184554 | 22 | 68 | 6.4 | 19.3 | 0.00 | 0.00 | 0.00 | 36 | 1013.6 |
| 20260503183059 | 22 | 47 | 3.2 | 16.1 | 0.00 | 0.00 | 0.00 | 38 | 1014.0 |
| 20260503181620 | 22 | 80 | 3.2 | 14.5 | 0.00 | 0.00 | 0.00 | 41 | 1014.7 |